• In Portugal
  • List of Countries
  • For 7 days
  • Water Temperature
  • Satellite Maps
  • Weather Map
  • Weather Widgets
  • user-avatar
    Login

    Hourly Weather Kakanj

    Today, 26 September, Wednesday

    Time Temperature Precipitation Wind Pressure Humidity
    00:00 +5°C° 0 mm 2 mps 735 mmHg 73%
    01:00 +4°C° 0 mm 2 mps 735 mmHg 78%
    02:00 +4°C° 0 mm 2 mps 735 mmHg 81%
    03:00 +4°C° 0 mm 1 mps 735 mmHg 84%
    04:00 +4°C° 0 mm 1 mps 735 mmHg 86%
    05:00 +4°C° 0 mm 1 mps 735 mmHg 83%
    06:00 +5°C° 0 mm 1 mps 736 mmHg 79%
    07:00 +6°C° 0 mm 2 mps 736 mmHg 71%
    08:00 +8°C° 0 mm 2 mps 736 mmHg 62%
    09:00 +9°C° 0 mm 3 mps 736 mmHg 53%
    10:00 +11°C° 0 mm 4 mps 736 mmHg 44%
    11:00 +12°C° 0 mm 4 mps 736 mmHg 41%
    12:00 +13°C° 0 mm 4 mps 736 mmHg 39%
    13:00 +14°C° 0 mm 4 mps 736 mmHg 36%
    14:00 +14°C° 0 mm 4 mps 735 mmHg 37%
    15:00 +13°C° 0 mm 3 mps 735 mmHg 38%
    16:00 +13°C° 0 mm 3 mps 735 mmHg 39%
    17:00 +12°C° 0 mm 2 mps 735 mmHg 46%
    18:00 +8°C° 0 mm 2 mps 735 mmHg 53%
    19:00 +7°C° 0 mm 1 mps 735 mmHg 61%
    20:00 +6°C° 0 mm 1 mps 735 mmHg 61%
    21:00 +6°C° 0 mm 1 mps 735 mmHg 62%
    22:00 +5°C° 0 mm 1 mps 735 mmHg 63%
    23:00 +5°C° 0 mm 1 mps 735 mmHg 63%

    Tomorrow, 27 September, Thursday

    Time Temperature Precipitation Wind Pressure Humidity
    00:00 +5°C° 0 mm 1 mps 735 mmHg 62%
    01:00 +5°C° 0 mm 1 mps 735 mmHg 62%
    02:00 +5°C° 0 mm 1 mps 735 mmHg 60%
    03:00 +5°C° 0 mm 1 mps 734 mmHg 59%
    04:00 +5°C° 0 mm 1 mps 734 mmHg 58%
    05:00 +6°C° 0 mm 1 mps 734 mmHg 54%
    06:00 +7°C° 0 mm 1 mps 734 mmHg 49%
    07:00 +8°C° 0 mm 1 mps 734 mmHg 45%
    08:00 +11°C° 0 mm 1 mps 734 mmHg 38%
    09:00 +14°C° 0 mm 1 mps 734 mmHg 31%
    10:00 +18°C° 0 mm 1 mps 734 mmHg 24%
    11:00 +18°C° 0 mm 2 mps 734 mmHg 24%
    12:00 +19°C° 0 mm 2 mps 733 mmHg 23%
    13:00 +20°C° 0 mm 2 mps 733 mmHg 22%
    14:00 +19°C° 0 mm 2 mps 732 mmHg 25%
    15:00 +19°C° 0 mm 2 mps 731 mmHg 28%
    16:00 +18°C° 0 mm 2 mps 731 mmHg 32%
    17:00 +15°C° 0 mm 2 mps 731 mmHg 37%
    18:00 +13°C° 0 mm 1 mps 730 mmHg 43%
    19:00 +10°C° 0 mm 1 mps 730 mmHg 48%
    20:00 +10°C° 0 mm 1 mps 730 mmHg 49%
    21:00 +9°C° 0 mm 1 mps 730 mmHg 49%
    22:00 +9°C° 0 mm 1 mps 730 mmHg 50%
    23:00 +9°C° 0 mm 1 mps 729 mmHg 49%

    Day after tomorrow, 28 September, Friday

    Time Temperature Precipitation Wind Pressure Humidity
    00:00 +9°C° 0 mm 1 mps 729 mmHg 49%
    01:00 +8°C° 0 mm 1 mps 728 mmHg 48%
    02:00 +8°C° 0 mm 1 mps 728 mmHg 47%
    03:00 +8°C° 0 mm 1 mps 727 mmHg 46%
    04:00 +8°C° 0 mm 1 mps 727 mmHg 46%
    05:00 +9°C° 0 mm 1 mps 727 mmHg 45%
    06:00 +10°C° 0 mm 1 mps 726 mmHg 45%
    07:00 +11°C° 0 mm 1 mps 726 mmHg 44%
    08:00 +14°C° 0 mm 1 mps 726 mmHg 39%
    09:00 +18°C° 0 mm 1 mps 726 mmHg 34%
    10:00 +21°C° 0 mm 1 mps 726 mmHg 29%
    11:00 +21°C° 0 mm 2 mps 725 mmHg 28%
    12:00 +23°C° 0 mm 2 mps 725 mmHg 27%
    13:00 +24°C° 0 mm 2 mps 724 mmHg 26%
    14:00 +23°C° 0 mm 2 mps 724 mmHg 29%
    15:00 +21°C° 0 mm 2 mps 723 mmHg 33%
    16:00 +21°C° 0 mm 2 mps 723 mmHg 36%
    17:00 +18°C° 0 mm 2 mps 723 mmHg 42%
    18:00 +15°C° 0 mm 1 mps 723 mmHg 48%
    19:00 +12°C° 0 mm 1 mps 723 mmHg 54%
    20:00 +12°C° 0 mm 1 mps 723 mmHg 55%
    21:00 +11°C° 0 mm 1 mps 723 mmHg 56%
    22:00 +11°C° 0 mm 1 mps 723 mmHg 57%
    23:00 +10°C° 0 mm 1 mps 723 mmHg 57%

    29 September, Saturday

    Time Temperature Precipitation Wind Pressure Humidity
    00:00 +10°C° 0 mm 1 mps 723 mmHg 57%
    01:00 +9°C° 0 mm 1 mps 723 mmHg 58%
    02:00 +9°C° 0 mm 1 mps 723 mmHg 57%
    03:00 +9°C° 0 mm 1 mps 723 mmHg 56%
    04:00 +9°C° 0 mm 1 mps 723 mmHg 56%
    05:00 +10°C° 0 mm 1 mps 723 mmHg 55%
    06:00 +11°C° 0 mm 1 mps 724 mmHg 53%
    07:00 +12°C° 0 mm 1 mps 724 mmHg 52%
    08:00 +14°C° 0 mm 2 mps 724 mmHg 48%
    09:00 +16°C° 0 mm 2 mps 725 mmHg 44%
    10:00 +19°C° 0 mm 3 mps 725 mmHg 40%
    11:00 +19°C° 0 mm 3 mps 725 mmHg 43%
    12:00 +19°C° 0 mm 4 mps 725 mmHg 46%
    13:00 +20°C° 0 mm 4 mps 725 mmHg 49%
    14:00 +19°C° 0 mm 4 mps 725 mmHg 53%
    15:00 +18°C° 0 mm 4 mps 725 mmHg 56%
    16:00 +17°C° 0 mm 3 mps 725 mmHg 60%
    17:00 +14°C° 0 mm 3 mps 725 mmHg 64%
    18:00 +13°C° 0 mm 3 mps 726 mmHg 67%
    19:00 +12°C° 0 mm 2 mps 726 mmHg 71%
    20:00 +12°C° 0 mm 2 mps 727 mmHg 73%
    21:00 +10°C° 0 mm 2 mps 727 mmHg 76%
    22:00 +10°C° 0 mm 2 mps 727 mmHg 78%
    23:00 +9°C° 0 mm 2 mps 727 mmHg 82%

    30 September, Sunday

    Time Temperature Precipitation Wind Pressure Humidity
    00:00 +9°C° 0 mm 1 mps 727 mmHg 86%
    01:00 +9°C° 0 mm 1 mps 727 mmHg 90%
    02:00 +8°C° 0 mm 1 mps 727 mmHg 91%
    03:00 +7°C° 0 mm 1 mps 727 mmHg 92%
    04:00 +7°C° 0 mm 1 mps 726 mmHg 93%
    05:00 +7°C° 0 mm 1 mps 727 mmHg 90%
    06:00 +7°C° 0 mm 1 mps 727 mmHg 88%
    07:00 +8°C° 0 mm 1 mps 727 mmHg 85%
    08:00 +10°C° 0 mm 1 mps 727 mmHg 72%
    09:00 +12°C° 0 mm 2 mps 727 mmHg 60%
    10:00 +14°C° 0 mm 2 mps 726 mmHg 47%
    11:00 +15°C° 0 mm 2 mps 726 mmHg 45%
    12:00 +16°C° 0 mm 2 mps 726 mmHg 43%
    13:00 +17°C° 0 mm 3 mps 725 mmHg 42%
    14:00 +17°C° 0 mm 2 mps 725 mmHg 44%
    15:00 +16°C° 0 mm 2 mps 725 mmHg 46%
    16:00 +16°C° 0 mm 2 mps 724 mmHg 49%
    17:00 +14°C° 0 mm 2 mps 724 mmHg 57%
    18:00 +12°C° 0 mm 1 mps 724 mmHg 65%
    19:00 +10°C° 0 mm 1 mps 724 mmHg 73%
    20:00 +9°C° 0 mm 1 mps 724 mmHg 76%
    21:00 +9°C° 0 mm 1 mps 724 mmHg 79%
    22:00 +8°C° 0 mm 1 mps 724 mmHg 82%
    23:00 +8°C° 0 mm 1 mps 724 mmHg 83%

    1 October, Monday

    Time Temperature Precipitation Wind Pressure Humidity
    00:00 +8°C° 0 mm 1 mps 723 mmHg 84%
    01:00 +8°C° 0 mm 1 mps 723 mmHg 85%
    02:00 +8°C° 0 mm 1 mps 723 mmHg 86%
    03:00 +7°C° 0 mm 1 mps 722 mmHg 86%
    04:00 +7°C° 0 mm 1 mps 722 mmHg 87%
    05:00 +8°C° 0 mm 1 mps 722 mmHg 84%
    06:00 +9°C° 0 mm 1 mps 722 mmHg 80%
    07:00 +10°C° 0 mm 1 mps 722 mmHg 77%
    08:00 +13°C° 0 mm 1 mps 722 mmHg 68%
    09:00 +16°C° 0 mm 1 mps 722 mmHg 58%
    10:00 +20°C° 0 mm 1 mps 722 mmHg 49%
    11:00 +20°C° 0 mm 1 mps 722 mmHg 47%
    12:00 +21°C° 0 mm 1 mps 721 mmHg 45%
    13:00 +21°C° 0 mm 1 mps 721 mmHg 43%
    14:00 +21°C° 0.1 mm 1 mps 721 mmHg 47%
    15:00 +20°C° 0.1 mm 1 mps 721 mmHg 51%
    16:00 +19°C° 0.1 mm 1 mps 720 mmHg 55%
    17:00 +16°C° 0.1 mm 1 mps 720 mmHg 63%
    18:00 +14°C° 0.1 mm 1 mps 720 mmHg 72%
    19:00 +11°C° 0.1 mm 0 mps 720 mmHg 80%
    20:00 +12°C° 0 mm 1 mps 720 mmHg 82%
    21:00 +11°C° 0 mm 1 mps 721 mmHg 84%
    22:00 +11°C° 0 mm 1 mps 721 mmHg 85%
    23:00 +10°C° 0 mm 1 mps 721 mmHg 86%
    Show more